WZZ32 EGPH-EGAA

Flight info

Callsign WZZ32
Flight time 0h 35m
Altitude 26000
Route GOSAM P600 BLACA DCT BELZU
Aircraft A20N/M-SDE2E3FGHIRWXY/LB1

Departure

Time 2026-05-03 21:12
Airport Edinburgh Airport (EGPH)

Arrival

Time 2026-05-03 21:47
Airport Belfast International Airport (EGAA)
Time Latitude Longitude Altitude Speed Heading
2026-05-03 20:46 55.94841 -3.35861 107 ft 0 kts 208°
2026-05-03 20:52 55.94846 -3.35857 107 ft 1 kts 208°
2026-05-03 20:52 55.94856 -3.35847 106 ft 2 kts 208°
2026-05-03 20:53 55.94869 -3.35835 104 ft 2 kts 208°
2026-05-03 20:53 55.94883 -3.35822 105 ft 2 kts 217°
2026-05-03 20:53 55.94894 -3.35803 105 ft 2 kts 241°
2026-05-03 20:53 55.94899 -3.35779 106 ft 2 kts 264°
2026-05-03 20:54 55.94899 -3.35753 107 ft 2 kts 288°
2026-05-03 20:54 55.94888 -3.35721 105 ft 0 kts 321°
2026-05-03 20:54 55.94890 -3.35723 105 ft 1 kts 321°
2026-05-03 20:55 55.94894 -3.35729 105 ft 0 kts 321°
2026-05-03 20:56 55.94894 -3.35730 105 ft 0 kts 316°
2026-05-03 20:56 55.94909 -3.35778 107 ft 10 kts 300°
2026-05-03 20:57 55.94967 -3.35857 108 ft 12 kts 360°
2026-05-03 20:57 55.95043 -3.35857 107 ft 9 kts 307°
2026-05-03 20:57 55.95084 -3.35961 109 ft 15 kts 298°
2026-05-03 20:57 55.95129 -3.36186 107 ft 23 kts 289°
2026-05-03 20:58 55.95092 -3.36431 110 ft 19 kts 240°
2026-05-03 20:58 55.95013 -3.36628 111 ft 23 kts 242°
2026-05-03 20:58 55.94918 -3.36916 108 ft 34 kts 237°
2026-05-03 20:58 55.94781 -3.37322 111 ft 38 kts 240°
2026-05-03 20:59 55.94648 -3.37716 117 ft 36 kts 238°
2026-05-03 20:59 55.94517 -3.38100 113 ft 36 kts 246°
2026-05-03 20:59 55.94393 -3.38473 115 ft 34 kts 240°
2026-05-03 20:59 55.94291 -3.38763 120 ft 23 kts 238°
2026-05-03 21:00 55.94318 -3.38897 122 ft 7 kts 324°
2026-05-03 21:00 55.94319 -3.38899 122 ft 0 kts 324°
2026-05-03 21:07 55.94344 -3.38926 122 ft 11 kts 328°
2026-05-03 21:07 55.94426 -3.38929 120 ft 11 kts 48°
2026-05-03 21:07 55.94439 -3.38895 119 ft 0 kts 59°
2026-05-03 21:11 55.94563 -3.38523 115 ft 76 kts 59°
2026-05-03 21:12 55.94961 -3.37359 111 ft 141 kts 58°
2026-05-03 21:12 55.95543 -3.35651 361 ft 172 kts 57°
2026-05-03 21:12 55.96247 -3.33895 1102 ft 175 kts 50°
2026-05-03 21:12 55.97134 -3.32399 1877 ft 183 kts 39°
2026-05-03 21:13 55.98186 -3.30956 2455 ft 199 kts 37°
2026-05-03 21:13 55.99323 -3.29362 2956 ft 216 kts 38°
2026-05-03 21:13 56.00664 -3.27941 3453 ft 232 kts 13°
2026-05-03 21:13 56.02265 -3.27961 4253 ft 234 kts 342°
2026-05-03 21:14 56.03646 -3.29486 4881 ft 238 kts 311°
2026-05-03 21:14 56.04414 -3.32118 5844 ft 243 kts 282°
2026-05-03 21:14 56.04383 -3.35197 6159 ft 261 kts 258°
2026-05-03 21:14 56.03540 -3.38029 6084 ft 253 kts 233°
2026-05-03 21:15 56.02548 -3.40615 6005 ft 252 kts 245°
2026-05-03 21:15 56.01901 -3.43511 6002 ft 251 kts 254°
2026-05-03 21:15 56.01427 -3.46555 6061 ft 261 kts 257°
2026-05-03 21:15 56.00987 -3.49813 6536 ft 274 kts 258°
2026-05-03 21:16 56.00542 -3.53119 7500 ft 273 kts 257°
2026-05-03 21:16 56.00087 -3.56420 8390 ft 276 kts 257°
2026-05-03 21:16 55.99613 -3.59777 9302 ft 278 kts 257°
2026-05-03 21:16 55.99133 -3.63092 10169 ft 280 kts 256°
2026-05-03 21:17 55.98637 -3.66479 10921 ft 284 kts 256°
2026-05-03 21:17 55.98295 -3.68801 11451 ft 287 kts 256°
2026-05-03 21:17 55.97616 -3.73396 12463 ft 292 kts 256°
2026-05-03 21:17 55.97094 -3.76923 13226 ft 295 kts 256°
2026-05-03 21:18 55.96566 -3.80490 13973 ft 299 kts 256°
2026-05-03 21:18 55.96032 -3.84095 14649 ft 302 kts 256°
2026-05-03 21:18 55.95493 -3.87727 15342 ft 304 kts 256°
2026-05-03 21:18 55.94946 -3.91396 16009 ft 307 kts 256°
2026-05-03 21:19 55.94395 -3.95088 16676 ft 310 kts 256°
2026-05-03 21:19 55.93754 -3.98779 17334 ft 314 kts 247°
2026-05-03 21:19 55.92619 -4.02137 17978 ft 319 kts 232°
2026-05-03 21:19 55.91070 -4.04998 18571 ft 324 kts 223°
2026-05-03 21:20 55.89294 -4.07507 19100 ft 328 kts 218°
2026-05-03 21:20 55.87405 -4.09857 19628 ft 333 kts 216°
2026-05-03 21:20 55.85470 -4.12162 20158 ft 336 kts 215°
2026-05-03 21:20 55.83509 -4.14487 20682 ft 340 kts 215°
2026-05-03 21:21 55.81537 -4.16840 21203 ft 344 kts 216°
2026-05-03 21:21 55.79572 -4.19201 21706 ft 347 kts 216°
2026-05-03 21:21 55.77550 -4.21603 22219 ft 351 kts 214°
2026-05-03 21:21 55.75458 -4.23894 22717 ft 355 kts 212°
2026-05-03 21:22 55.73325 -4.26156 23218 ft 358 kts 212°
2026-05-03 21:22 55.71170 -4.28443 23688 ft 362 kts 212°
2026-05-03 21:22 55.69007 -4.30755 24084 ft 366 kts 213°
2026-05-03 21:22 55.66820 -4.33103 24464 ft 369 kts 213°
2026-05-03 21:23 55.64614 -4.35479 24837 ft 373 kts 213°
2026-05-03 21:23 55.62391 -4.37874 25222 ft 376 kts 213°
2026-05-03 21:23 55.60144 -4.40293 25591 ft 380 kts 213°
2026-05-03 21:23 55.57873 -4.42735 25837 ft 384 kts 213°
2026-05-03 21:24 55.55582 -4.45193 25946 ft 384 kts 213°
2026-05-03 21:24 55.53293 -4.47645 26016 ft 385 kts 212°
2026-05-03 21:24 55.50999 -4.50100 26021 ft 385 kts 212°
2026-05-03 21:24 55.48712 -4.52543 26019 ft 385 kts 212°
2026-05-03 21:25 55.46410 -4.55000 26019 ft 385 kts 212°
2026-05-03 21:25 55.44116 -4.57444 26020 ft 386 kts 212°
2026-05-03 21:25 55.41817 -4.59891 26019 ft 386 kts 212°
2026-05-03 21:25 55.39550 -4.62300 26019 ft 386 kts 212°
2026-05-03 21:26 55.37254 -4.64738 26024 ft 386 kts 212°
2026-05-03 21:26 55.34954 -4.67176 26020 ft 386 kts 212°
2026-05-03 21:26 55.32653 -4.69612 26008 ft 386 kts 212°
2026-05-03 21:26 55.30352 -4.72044 26009 ft 386 kts 212°
2026-05-03 21:27 55.28050 -4.74475 26010 ft 386 kts 212°
2026-05-03 21:27 55.25745 -4.76905 26017 ft 386 kts 212°
2026-05-03 21:27 55.23439 -4.79333 26012 ft 386 kts 212°
2026-05-03 21:27 55.21136 -4.81754 26004 ft 386 kts 212°
2026-05-03 21:28 55.18832 -4.84173 26008 ft 386 kts 212°
2026-05-03 21:28 55.16528 -4.86589 26005 ft 386 kts 212°
2026-05-03 21:28 55.14224 -4.89001 26009 ft 386 kts 212°
2026-05-03 21:28 55.11921 -4.91409 26012 ft 386 kts 212°
2026-05-03 21:29 55.09615 -4.93817 26003 ft 386 kts 212°
2026-05-03 21:29 55.07309 -4.96221 26006 ft 386 kts 212°
2026-05-03 21:29 55.04999 -4.98627 26005 ft 386 kts 212°
2026-05-03 21:29 55.02691 -5.01027 26007 ft 386 kts 211°
2026-05-03 21:30 55.00393 -5.03413 26014 ft 386 kts 211°
2026-05-03 21:30 54.98105 -5.05786 26002 ft 386 kts 211°
2026-05-03 21:30 54.95796 -5.08176 25860 ft 384 kts 211°
2026-05-03 21:30 54.93508 -5.10543 25580 ft 381 kts 211°
2026-05-03 21:31 54.91242 -5.12883 25214 ft 377 kts 212°
2026-05-03 21:31 54.89189 -5.15640 24798 ft 371 kts 229°
2026-05-03 21:31 54.87717 -5.19241 24394 ft 364 kts 246°
2026-05-03 21:31 54.86815 -5.23308 23991 ft 359 kts 252°
2026-05-03 21:32 54.86000 -5.27385 23607 ft 355 kts 252°
2026-05-03 21:32 54.85189 -5.31410 23154 ft 352 kts 252°
2026-05-03 21:32 54.84381 -5.35391 22600 ft 349 kts 252°
2026-05-03 21:32 54.83575 -5.39342 21976 ft 345 kts 252°
2026-05-03 21:33 54.82777 -5.43245 21327 ft 342 kts 252°
2026-05-03 21:33 54.81984 -5.47110 20695 ft 338 kts 252°
2026-05-03 21:33 54.81199 -5.50935 20086 ft 335 kts 252°
2026-05-03 21:33 54.80431 -5.54668 19481 ft 332 kts 252°
2026-05-03 21:34 54.79657 -5.58420 18910 ft 329 kts 252°
2026-05-03 21:34 54.78892 -5.62128 18344 ft 325 kts 251°
2026-05-03 21:34 54.78131 -5.65803 17677 ft 323 kts 251°
2026-05-03 21:34 54.77373 -5.69459 17023 ft 321 kts 251°
2026-05-03 21:35 54.76623 -5.73069 16404 ft 318 kts 252°
2026-05-03 21:35 54.75871 -5.76678 15783 ft 316 kts 252°
2026-05-03 21:35 54.75128 -5.80242 15187 ft 314 kts 252°
2026-05-03 21:35 54.74387 -5.83785 14604 ft 312 kts 252°
2026-05-03 21:36 54.73651 -5.87305 14023 ft 310 kts 252°
2026-05-03 21:36 54.72919 -5.90796 13422 ft 307 kts 252°
2026-05-03 21:36 54.72192 -5.94258 12817 ft 305 kts 252°
2026-05-03 21:36 54.71473 -5.97681 12234 ft 302 kts 252°
2026-05-03 21:37 54.70763 -6.01052 11662 ft 299 kts 251°
2026-05-03 21:37 54.70052 -6.04422 11094 ft 297 kts 251°
2026-05-03 21:37 54.69346 -6.07767 10545 ft 295 kts 251°
2026-05-03 21:37 54.68646 -6.11073 10015 ft 292 kts 251°
2026-05-03 21:38 54.67949 -6.14359 9426 ft 290 kts 251°
2026-05-03 21:38 54.67258 -6.17614 8863 ft 287 kts 251°
2026-05-03 21:38 54.66573 -6.20838 8286 ft 285 kts 251°
2026-05-03 21:38 54.65897 -6.24036 7730 ft 282 kts 253°
2026-05-03 21:39 54.65593 -6.27347 7134 ft 278 kts 266°
2026-05-03 21:39 54.65278 -6.30634 6596 ft 277 kts 258°
2026-05-03 21:39 54.64815 -6.33856 6061 ft 275 kts 257°
2026-05-03 21:39 54.64349 -6.37045 5502 ft 273 kts 257°
2026-05-03 21:40 54.63836 -6.40204 4956 ft 272 kts 252°
2026-05-03 21:40 54.63157 -6.43246 4395 ft 271 kts 249°
2026-05-03 21:40 54.62452 -6.46263 3932 ft 270 kts 249°
2026-05-03 21:40 54.61768 -6.49278 3446 ft 268 kts 255°
2026-05-03 21:41 54.61398 -6.52408 2938 ft 267 kts 253°
2026-05-03 21:41 54.60476 -6.54992 2783 ft 240 kts 224°
2026-05-03 21:41 54.59099 -6.56262 2560 ft 215 kts 192°
2026-05-03 21:41 54.57708 -6.56198 2383 ft 192 kts 155°
2026-05-03 21:42 54.56768 -6.54856 2221 ft 166 kts 112°
2026-05-03 21:42 54.56649 -6.53055 2059 ft 146 kts 70°
2026-05-03 21:42 54.57128 -6.51593 2062 ft 147 kts 49°
2026-05-03 21:42 54.57780 -6.50191 2026 ft 152 kts 50°
2026-05-03 21:43 54.58365 -6.48659 2032 ft 154 kts 58°
2026-05-03 21:43 54.58898 -6.47068 2022 ft 154 kts 57°
2026-05-03 21:43 54.59443 -6.45460 2017 ft 155 kts 57°
2026-05-03 21:43 54.59834 -6.43737 1985 ft 155 kts 72°
2026-05-03 21:44 54.60131 -6.41986 1892 ft 149 kts 67°
2026-05-03 21:44 54.60476 -6.40309 1822 ft 146 kts 64°
2026-05-03 21:44 54.60932 -6.38733 1749 ft 148 kts 57°
2026-05-03 21:44 54.61412 -6.37213 1624 ft 138 kts 60°
2026-05-03 21:45 54.61836 -6.35787 1463 ft 133 kts 60°
2026-05-03 21:45 54.62248 -6.34346 1329 ft 133 kts 61°
2026-05-03 21:45 54.62663 -6.32898 1258 ft 136 kts 61°
2026-05-03 21:45 54.63067 -6.31436 1179 ft 136 kts 62°
2026-05-03 21:46 54.63472 -6.29960 1011 ft 135 kts 62°
2026-05-03 21:46 54.63875 -6.28470 792 ft 136 kts 63°
2026-05-03 21:46 54.64278 -6.26984 603 ft 138 kts 63°
2026-05-03 21:46 54.64692 -6.25494 430 ft 137 kts 64°
2026-05-03 21:47 54.65090 -6.24028 331 ft 138 kts 64°
2026-05-03 21:47 54.65489 -6.22536 237 ft 131 kts 64°
2026-05-03 21:47 54.65814 -6.21350 245 ft 81 kts 65°
2026-05-03 21:47 54.65966 -6.20781 255 ft 23 kts 65°
2026-05-03 21:48 54.65998 -6.20662 258 ft 11 kts 65°
2026-05-03 21:48 54.66033 -6.20535 261 ft 13 kts 57°
2026-05-03 21:48 54.66108 -6.20271 268 ft 30 kts 66°
2026-05-03 21:48 54.66163 -6.20049 271 ft 31 kts 66°
2026-05-03 21:49 54.66252 -6.19707 275 ft 25 kts 54°
2026-05-03 21:49 54.66353 -6.19709 276 ft 17 kts 337°
2026-05-03 21:49 54.66380 -6.19915 275 ft 23 kts 248°
2026-05-03 21:49 54.66299 -6.20227 268 ft 35 kts 245°
2026-05-03 21:50 54.66190 -6.20633 261 ft 39 kts 245°
2026-05-03 21:50 54.66071 -6.21061 254 ft 39 kts 246°
2026-05-03 21:50 54.65988 -6.21418 248 ft 25 kts 268°
2026-05-03 21:50 54.66068 -6.21544 245 ft 9 kts 339°
2026-05-03 21:51 54.66070 -6.21545 246 ft 0 kts 339°